Time,TemperatureF,DewpointF,PressureIn,WindDirection,WindDirectionDegrees,WindSpeedMPH,WindSpeedGustMPH,Humidity,HourlyPrecipIn,Conditions,Clouds,dailyrainin,SoftwareType,DateUTC
2013-05-16 00:01:00,63.4,55.6,29.50,SSW,202,0.9,1.8,76,0.00,,,0.00,Weather8,2013-05-16 04:01:00,
2013-05-16 00:07:00,63.2,55.4,29.51,SW,225,0.4,1.8,76,0.00,,,0.00,Weather8,2013-05-16 04:07:00,
2013-05-16 00:09:00,63.2,55.4,29.51,SW,225,1.1,1.8,76,0.00,,,0.00,Weather8,2013-05-16 04:09:00,
2013-05-16 00:15:00,63.2,55.4,29.50,SW,225,1.1,1.6,76,0.00,,,0.00,Weather8,2013-05-16 04:15:00,
2013-05-16 00:20:00,63.0,55.3,29.50,SW,225,0.0,1.1,76,0.00,,,0.00,Weather8,2013-05-16 04:20:00,
2013-05-16 00:25:00,63.0,55.3,29.50,SW,225,0.0,1.1,76,0.00,,,0.00,Weather8,2013-05-16 04:25:00,
2013-05-16 00:30:00,63.0,55.3,29.50,SW,225,0.0,0.9,76,0.00,,,0.00,Weather8,2013-05-16 04:30:00,
2013-05-16 00:35:00,63.0,55.3,29.50,North,0,1.3,1.3,76,0.00,,,0.00,Weather8,2013-05-16 04:35:00,
2013-05-16 00:40:00,62.8,55.8,29.51,West,270,1.3,5.1,78,0.00,,,0.00,Weather8,2013-05-16 04:40:00,
2013-05-16 00:42:00,62.8,56.2,29.53,North,0,4.5,5.1,79,0.00,,,0.00,Weather8,2013-05-16 04:42:00,
2013-05-16 00:47:00,62.8,56.5,29.53,NNE,22,2.7,5.1,80,0.00,,,0.00,Weather8,2013-05-16 04:47:00,
2013-05-16 00:49:00,62.8,56.2,29.52,NNW,337,0.9,4.7,79,0.00,,,0.00,Weather8,2013-05-16 04:49:00,
2013-05-16 00:54:00,63.0,56.3,29.53,NNE,22,0.9,4.9,79,0.00,,,0.00,Weather8,2013-05-16 04:54:00,
2013-05-16 00:59:00,63.0,56.7,29.53,NW,315,1.1,4.9,80,0.00,,,0.00,Weather8,2013-05-16 04:59:00,
2013-05-16 01:04:00,63.2,56.5,29.53,North,0,1.8,4.0,79,0.00,,,0.00,Weather8,2013-05-16 05:04:00,
2013-05-16 01:09:00,63.4,56.7,29.52,North,0,2.7,4.0,79,0.00,,,0.00,Weather8,2013-05-16 05:09:00,
2013-05-16 01:14:00,63.4,56.7,29.52,NNE,22,3.4,4.0,79,0.00,,,0.00,Weather8,2013-05-16 05:14:00,
2013-05-16 01:19:00,63.5,57.2,29.51,NNW,337,1.1,3.4,80,0.00,,,0.00,Weather8,2013-05-16 05:19:00,
2013-05-16 01:24:00,63.5,57.2,29.52,North,0,0.4,3.4,80,0.00,,,0.00,Weather8,2013-05-16 05:24:00,
2013-05-16 01:29:00,63.7,57.4,29.52,North,0,0.4,2.2,80,0.00,,,0.00,Weather8,2013-05-16 05:29:00,
2013-05-16 01:34:00,63.7,57.4,29.52,NNW,337,0.4,1.6,80,0.00,,,0.00,Weather8,2013-05-16 05:34:00,
2013-05-16 01:39:00,63.7,57.1,29.51,NNW,337,0.0,1.1,79,0.00,,,0.00,Weather8,2013-05-16 05:39:00,
2013-05-16 01:44:00,63.5,56.9,29.51,SW,225,0.9,1.1,79,0.00,,,0.00,Weather8,2013-05-16 05:44:00,
2013-05-16 01:49:00,63.5,56.9,29.51,SW,225,0.0,0.9,79,0.00,,,0.00,Weather8,2013-05-16 05:49:00,
2013-05-16 01:54:00,63.4,56.3,29.51,SW,225,0.0,0.9,78,0.00,,,0.00,Weather8,2013-05-16 05:54:00,
2013-05-16 01:59:00,63.4,56.3,29.51,SW,225,0.0,0.0,78,0.00,,,0.00,Weather8,2013-05-16 05:59:00,
2013-05-16 02:04:00,63.2,56.2,29.51,SW,225,1.3,1.3,78,0.00,,,0.00,Weather8,2013-05-16 06:04:00,
2013-05-16 02:09:00,63.0,56.3,29.51,SW,225,0.7,1.6,79,0.00,,,0.00,Weather8,2013-05-16 06:09:00,
2013-05-16 02:14:00,62.8,56.2,29.51,SW,225,0.0,1.6,79,0.00,,,0.00,Weather8,2013-05-16 06:14:00,
2013-05-16 02:19:00,62.6,56.0,29.51,SW,225,0.0,1.6,79,0.00,,,0.00,Weather8,2013-05-16 06:19:00,
2013-05-16 02:24:00,62.6,56.0,29.50,SW,225,1.1,1.1,79,0.00,,,0.00,Weather8,2013-05-16 06:24:00,
2013-05-16 02:29:00,62.5,55.8,29.51,WSW,247,0.2,1.1,79,0.00,,,0.00,Weather8,2013-05-16 06:29:00,
2013-05-16 02:34:00,62.3,55.6,29.50,NNW,337,0.0,1.1,79,0.00,,,0.00,Weather8,2013-05-16 06:34:00,
2013-05-16 02:39:00,62.5,55.8,29.51,NNW,337,0.0,0.4,79,0.00,,,0.00,Weather8,2013-05-16 06:39:00,
2013-05-16 02:44:00,62.3,55.6,29.50,NNW,337,0.0,0.4,79,0.00,,,0.00,Weather8,2013-05-16 06:44:00,
2013-05-16 02:49:00,62.3,55.6,29.51,NNW,337,0.0,0.4,79,0.00,,,0.00,Weather8,2013-05-16 06:49:00,
2013-05-16 02:54:00,62.3,55.6,29.51,NNW,337,0.0,0.4,79,0.00,,,0.00,Weather8,2013-05-16 06:54:00,
2013-05-16 02:59:00,62.3,55.6,29.51,NNW,337,0.0,0.4,79,0.00,,,0.00,Weather8,2013-05-16 06:59:00,
2013-05-16 03:04:00,62.1,55.5,29.51,NNW,337,0.0,0.2,79,0.00,,,0.00,Weather8,2013-05-16 07:04:00,
2013-05-16 03:09:00,61.9,55.4,29.51,NNW,337,0.0,0.0,79,0.00,,,0.00,Weather8,2013-05-16 07:09:00,
2013-05-16 03:14:00,61.7,55.5,29.51,NNW,337,0.0,0.0,80,0.00,,,0.00,Weather8,2013-05-16 07:14:00,
2013-05-16 03:19:00,61.6,55.4,29.51,NNW,337,0.0,0.0,80,0.00,,,0.00,Weather8,2013-05-16 07:19:00,
2013-05-16 03:24:00,61.6,55.4,29.51,NNW,337,0.0,0.0,80,0.00,,,0.00,Weather8,2013-05-16 07:24:00,
2013-05-16 03:29:00,61.6,55.4,29.51,NNW,337,0.0,0.0,80,0.00,,,0.00,Weather8,2013-05-16 07:29:00,
2013-05-16 03:34:00,61.4,55.2,29.51,NNW,337,0.0,0.0,80,0.00,,,0.00,Weather8,2013-05-16 07:34:00,
2013-05-16 03:39:00,61.2,55.1,29.51,NNW,337,0.0,0.0,80,0.00,,,0.00,Weather8,2013-05-16 07:39:00,
2013-05-16 03:44:00,61.2,55.1,29.51,NNW,337,0.0,0.0,80,0.00,,,0.00,Weather8,2013-05-16 07:44:00,
2013-05-16 03:49:00,61.0,54.9,29.51,NNW,337,0.0,0.0,80,0.00,,,0.00,Weather8,2013-05-16 07:49:00,
2013-05-16 03:54:00,60.8,54.7,29.51,NNW,337,0.0,0.0,80,0.00,,,0.00,Weather8,2013-05-16 07:54:00,
2013-05-16 03:59:00,60.8,55.1,29.51,NNW,337,0.0,0.0,81,0.00,,,0.00,Weather8,2013-05-16 07:59:00,
2013-05-16 04:04:00,60.7,54.9,29.52,NNW,337,0.0,0.0,81,0.00,,,0.00,Weather8,2013-05-16 08:04:00,
2013-05-16 04:09:00,60.3,54.6,29.51,WSW,247,0.0,0.0,81,0.00,,,0.00,Weather8,2013-05-16 08:09:00,
2013-05-16 04:14:00,60.1,54.6,29.52,SW,225,0.7,0.7,82,0.00,,,0.00,Weather8,2013-05-16 08:14:00,
2013-05-16 04:19:00,60.1,54.6,29.52,SW,225,0.9,1.1,82,0.00,,,0.00,Weather8,2013-05-16 08:19:00,
2013-05-16 04:24:00,59.8,54.3,29.51,SW,225,0.7,1.1,82,0.00,,,0.00,Weather8,2013-05-16 08:24:00,
2013-05-16 04:29:00,59.8,54.6,29.51,SW,225,0.4,1.1,83,0.00,,,0.00,Weather8,2013-05-16 08:29:00,
2013-05-16 04:34:00,59.6,54.5,29.51,SW,225,0.4,0.9,83,0.00,,,0.00,Weather8,2013-05-16 08:34:00,
2013-05-16 04:39:00,59.6,54.5,29.51,SW,225,0.0,0.9,83,0.00,,,0.00,Weather8,2013-05-16 08:39:00,
2013-05-16 04:44:00,59.4,54.3,29.51,SW,225,0.0,0.4,83,0.00,,,0.00,Weather8,2013-05-16 08:44:00,
2013-05-16 04:49:00,59.4,54.3,29.51,SW,225,0.4,1.1,83,0.00,,,0.00,Weather8,2013-05-16 08:49:00,
2013-05-16 04:54:00,59.4,54.3,29.51,SW,225,0.0,1.1,83,0.00,,,0.00,Weather8,2013-05-16 08:54:00,
2013-05-16 04:59:00,59.2,54.1,29.51,SW,225,0.0,0.4,83,0.00,,,0.00,Weather8,2013-05-16 08:59:00,
2013-05-16 05:04:00,59.2,54.1,29.51,SW,225,0.0,0.0,83,0.00,,,0.00,Weather8,2013-05-16 09:04:00,
2013-05-16 05:09:00,59.2,54.1,29.51,SW,225,0.0,0.0,83,0.00,,,0.00,Weather8,2013-05-16 09:09:00,
2013-05-16 05:14:00,59.0,53.9,29.52,SW,225,0.0,0.0,83,0.00,,,0.00,Weather8,2013-05-16 09:14:00,
2013-05-16 05:19:00,59.0,53.9,29.52,West,270,0.4,0.4,83,0.00,,,0.00,Weather8,2013-05-16 09:19:00,
2013-05-16 05:24:00,59.0,53.9,29.52,West,270,0.0,0.4,83,0.00,,,0.00,Weather8,2013-05-16 09:24:00,
2013-05-16 05:29:00,59.0,53.9,29.52,West,270,0.0,0.4,83,0.00,,,0.00,Weather8,2013-05-16 09:29:00,
2013-05-16 05:34:00,59.0,53.9,29.53,West,270,0.0,0.0,83,0.00,,,0.00,Weather8,2013-05-16 09:34:00,
2013-05-16 05:39:00,59.0,53.9,29.53,West,270,0.0,0.0,83,0.00,,,0.00,Weather8,2013-05-16 09:39:00,
2013-05-16 05:44:00,59.0,53.9,29.53,North,0,0.0,0.9,83,0.00,,,0.00,Weather8,2013-05-16 09:44:00,
2013-05-16 05:49:00,59.0,53.9,29.53,North,0,0.0,0.9,83,0.00,,,0.00,Weather8,2013-05-16 09:49:00,
2013-05-16 05:54:00,58.9,53.7,29.53,North,0,0.4,0.4,83,0.00,,,0.00,Weather8,2013-05-16 09:54:00,
2013-05-16 05:59:00,58.9,54.0,29.54,North,0,0.4,0.7,84,0.00,,,0.00,Weather8,2013-05-16 09:59:00,
2013-05-16 06:04:00,58.9,54.0,29.54,North,0,0.0,0.7,84,0.00,,,0.00,Weather8,2013-05-16 10:04:00,
2013-05-16 06:09:00,58.7,53.6,29.54,North,0,0.0,0.4,83,0.00,,,0.00,Weather8,2013-05-16 10:09:00,
2013-05-16 06:14:00,58.7,53.8,29.55,North,0,0.0,0.0,84,0.00,,,0.00,Weather8,2013-05-16 10:14:00,
2013-05-16 06:19:00,58.7,53.6,29.55,North,0,0.0,0.0,83,0.00,,,0.00,Weather8,2013-05-16 10:19:00,
2013-05-16 06:24:00,58.7,53.6,29.55,North,0,0.0,0.0,83,0.00,,,0.00,Weather8,2013-05-16 10:24:00,
2013-05-16 06:29:00,58.7,53.8,29.55,North,0,0.0,0.0,84,0.00,,,0.00,Weather8,2013-05-16 10:29:00,
2013-05-16 06:34:00,58.7,53.8,29.56,North,0,0.0,0.0,84,0.00,,,0.00,Weather8,2013-05-16 10:34:00,
2013-05-16 06:39:00,58.7,53.8,29.56,North,0,0.0,0.0,84,0.00,,,0.00,Weather8,2013-05-16 10:39:00,
2013-05-16 06:44:00,58.7,53.8,29.56,North,0,0.0,0.0,84,0.00,,,0.00,Weather8,2013-05-16 10:44:00,
2013-05-16 06:49:00,58.9,54.0,29.56,North,0,0.2,0.7,84,0.00,,,0.00,Weather8,2013-05-16 10:49:00,
2013-05-16 06:54:00,58.9,54.4,29.56,North,0,0.4,0.7,85,0.00,,,0.00,Weather8,2013-05-16 10:54:00,
2013-05-16 06:59:00,59.0,54.5,29.56,North,0,0.0,0.7,85,0.00,,,0.00,Weather8,2013-05-16 10:59:00,
2013-05-16 07:04:00,59.2,54.7,29.56,North,0,0.0,0.4,85,0.00,,,0.00,Weather8,2013-05-16 11:04:00,
2013-05-16 07:09:00,59.4,54.9,29.57,North,0,0.0,0.7,85,0.00,,,0.00,Weather8,2013-05-16 11:09:00,
2013-05-16 07:14:00,59.6,55.1,29.57,NNW,337,0.0,0.7,85,0.00,,,0.00,Weather8,2013-05-16 11:14:00,
2013-05-16 07:19:00,59.9,55.8,29.58,SW,225,0.7,1.1,86,0.00,,,0.00,Weather8,2013-05-16 11:19:00,
2013-05-16 07:24:00,60.3,56.2,29.58,SW,225,0.0,1.1,86,0.00,,,0.00,Weather8,2013-05-16 11:24:00,
2013-05-16 07:29:00,60.5,56.4,29.58,SW,225,0.0,0.9,86,0.00,,,0.00,Weather8,2013-05-16 11:29:00,
2013-05-16 07:34:00,60.7,56.5,29.58,WSW,247,0.4,0.4,86,0.00,,,0.00,Weather8,2013-05-16 11:34:00,
2013-05-16 07:39:00,60.8,56.7,29.58,West,270,0.2,0.4,86,0.00,,,0.00,Weather8,2013-05-16 11:39:00,
2013-05-16 07:44:00,61.4,57.5,29.58,West,270,0.0,0.4,87,0.00,,,0.00,Weather8,2013-05-16 11:44:00,
2013-05-16 07:49:00,61.7,57.9,29.58,West,270,0.0,0.4,87,0.00,,,0.00,Weather8,2013-05-16 11:49:00,
2013-05-16 07:54:00,61.9,58.1,29.58,SSW,202,1.1,1.3,87,0.00,,,0.00,Weather8,2013-05-16 11:54:00,
2013-05-16 07:59:00,62.5,58.6,29.58,SSW,202,0.9,1.3,87,0.00,,,0.00,Weather8,2013-05-16 11:59:00,
2013-05-16 08:04:00,62.6,58.8,29.58,SSW,202,0.0,1.3,87,0.00,,,0.00,Weather8,2013-05-16 12:04:00,
2013-05-16 08:09:00,62.8,58.6,29.58,SSW,202,0.0,1.3,86,0.00,,,0.00,Weather8,2013-05-16 12:09:00,
2013-05-16 08:14:00,63.0,58.8,29.59,SSW,202,0.0,0.0,86,0.00,,,0.00,Weather8,2013-05-16 12:14:00,
2013-05-16 08:19:00,63.2,58.6,29.59,SSW,202,0.0,0.0,85,0.00,,,0.00,Weather8,2013-05-16 12:19:00,
2013-05-16 08:24:00,63.7,59.5,29.59,SW,225,0.0,0.9,86,0.00,,,0.00,Weather8,2013-05-16 12:24:00,
2013-05-16 08:29:00,64.1,59.5,29.59,North,0,0.4,1.6,85,0.00,,,0.00,Weather8,2013-05-16 12:29:00,
2013-05-16 08:34:00,64.4,59.1,29.59,NNW,337,1.1,1.6,83,0.00,,,0.00,Weather8,2013-05-16 12:34:00,
2013-05-16 08:39:00,64.8,59.2,29.60,NNW,337,1.1,1.1,82,0.00,,,0.00,Weather8,2013-05-16 12:39:00,
2013-05-16 08:44:00,65.5,58.9,29.60,NNE,22,1.1,1.3,79,0.00,,,0.00,Weather8,2013-05-16 12:44:00,
2013-05-16 08:49:00,65.9,58.9,29.60,North,0,1.1,1.3,78,0.00,,,0.00,Weather8,2013-05-16 12:49:00,
2013-05-16 08:54:00,66.2,58.8,29.61,North,0,0.9,1.3,77,0.00,,,0.00,Weather8,2013-05-16 12:54:00,
2013-05-16 08:59:00,66.6,58.4,29.61,NNW,337,1.3,1.8,75,0.00,,,0.00,Weather8,2013-05-16 12:59:00,
2013-05-16 09:04:00,67.0,58.4,29.61,NNW,337,0.4,1.8,74,0.00,,,0.00,Weather8,2013-05-16 13:04:00,
2013-05-16 09:09:00,67.1,58.6,29.61,NNW,337,0.4,1.8,74,0.00,,,0.00,Weather8,2013-05-16 13:09:00,
2013-05-16 09:14:00,67.3,58.8,29.62,North,0,1.8,1.8,74,0.00,,,0.00,Weather8,2013-05-16 13:14:00,
2013-05-16 09:19:00,67.5,57.8,29.63,NNW,337,2.5,2.5,71,0.00,,,0.00,Weather8,2013-05-16 13:19:00,
2013-05-16 09:24:00,67.7,58.3,29.64,NNE,22,1.1,2.5,72,0.00,,,0.00,Weather8,2013-05-16 13:24:00,
2013-05-16 09:29:00,67.5,58.1,29.63,North,0,1.6,2.5,72,0.00,,,0.00,Weather8,2013-05-16 13:29:00,
2013-05-16 09:34:00,67.5,58.1,29.63,NNW,337,0.9,3.4,72,0.00,,,0.00,Weather8,2013-05-16 13:34:00,
2013-05-16 09:39:00,67.3,56.4,29.64,NNW,337,3.8,5.4,68,0.00,,,0.00,Weather8,2013-05-16 13:39:00,
2013-05-16 09:44:00,67.1,54.9,29.65,NW,315,3.1,5.4,65,0.00,,,0.00,Weather8,2013-05-16 13:44:00,
2013-05-16 09:49:00,67.0,56.4,29.63,NNE,22,1.3,5.4,69,0.00,,,0.00,Weather8,2013-05-16 13:49:00,
2013-05-16 09:54:00,66.4,56.7,29.62,NNE,22,1.8,5.4,71,0.00,,,0.00,Weather8,2013-05-16 13:54:00,
2013-05-16 09:59:00,65.9,56.6,29.61,NNE,22,0.4,2.5,72,0.00,,,0.00,Weather8,2013-05-16 13:59:00,
2013-05-16 10:04:00,65.5,56.6,29.62,SSW,202,0.7,2.5,73,0.00,,,0.00,Weather8,2013-05-16 14:04:00,
2013-05-16 10:09:00,65.0,56.9,29.61,SW,225,2.2,2.2,75,0.00,,,0.00,Weather8,2013-05-16 14:09:00,
2013-05-16 10:14:00,64.1,56.7,29.61,South,180,1.1,2.2,77,0.00,,,0.00,Weather8,2013-05-16 14:14:00,
2013-05-16 10:19:00,63.7,56.7,29.61,South,180,0.0,2.2,78,0.00,,,0.00,Weather8,2013-05-16 14:19:00,
2013-05-16 10:24:00,63.5,56.9,29.62,SSW,202,0.0,1.3,79,0.00,,,0.00,Weather8,2013-05-16 14:24:00,
2013-05-16 10:29:00,63.4,56.7,29.61,SSE,157,1.1,1.1,79,0.00,,,0.00,Weather8,2013-05-16 14:29:00,
2013-05-16 10:34:00,63.4,57.4,29.60,SSE,157,1.1,1.8,81,0.00,,,0.00,Weather8,2013-05-16 14:34:00,
2013-05-16 10:39:00,63.7,58.2,29.59,SSE,157,0.9,1.8,82,0.00,,,0.00,Weather8,2013-05-16 14:39:00,
2013-05-16 10:44:00,63.9,58.3,29.60,South,180,0.4,1.1,82,0.00,,,0.00,Weather8,2013-05-16 14:44:00,
2013-05-16 10:49:00,64.1,58.5,29.60,South,180,0.0,0.9,82,0.00,,,0.00,Weather8,2013-05-16 14:49:00,
2013-05-16 10:54:00,64.4,58.9,29.60,SSW,202,0.7,0.7,82,0.00,,,0.00,Weather8,2013-05-16 14:54:00,
2013-05-16 10:59:00,64.6,59.1,29.60,SW,225,1.3,1.3,82,0.00,,,0.00,Weather8,2013-05-16 14:59:00,
2013-05-16 11:04:00,64.8,59.2,29.60,SW,225,0.0,1.3,82,0.00,,,0.00,Weather8,2013-05-16 15:04:00,
2013-05-16 11:09:00,65.0,59.3,29.61,SSW,202,1.1,2.0,82,0.00,,,0.00,Weather8,2013-05-16 15:09:00,
2013-05-16 11:14:00,65.0,59.3,29.61,SSW,202,0.4,2.0,82,0.00,,,0.00,Weather8,2013-05-16 15:14:00,
2013-05-16 11:19:00,65.2,58.9,29.60,SSW,202,0.4,2.0,80,0.00,,,0.00,Weather8,2013-05-16 15:19:00,
2013-05-16 11:24:00,65.5,59.2,29.60,SSE,157,0.0,1.8,80,0.00,,,0.00,Weather8,2013-05-16 15:24:00,
2013-05-16 11:29:00,65.9,59.6,29.61,South,180,0.9,1.8,80,0.00,,,0.00,Weather8,2013-05-16 15:29:00,
2013-05-16 11:34:00,66.4,60.1,29.60,SSE,157,0.9,0.9,80,0.00,,,0.00,Weather8,2013-05-16 15:34:00,
2013-05-16 11:39:00,67.3,60.3,29.61,South,180,1.8,1.8,78,0.00,,,0.00,Weather8,2013-05-16 15:39:00,
2013-05-16 11:44:00,68.4,60.9,29.61,SE,135,0.2,1.8,77,0.00,,,0.00,Weather8,2013-05-16 15:44:00,
2013-05-16 11:49:00,69.1,60.9,29.61,SSE,157,1.8,1.8,75,0.00,,,0.00,Weather8,2013-05-16 15:49:00,
2013-05-16 11:54:00,69.7,60.6,29.61,SSW,202,0.9,1.8,73,0.00,,,0.00,Weather8,2013-05-16 15:54:00,
2013-05-16 11:59:00,70.2,60.3,29.61,SSW,202,1.3,1.8,71,0.00,,,0.00,Weather8,2013-05-16 15:59:00,
2013-05-16 12:04:00,70.6,60.3,29.61,East,90,0.4,1.3,70,0.00,,,0.00,Weather8,2013-05-16 16:04:00,
2013-05-16 12:09:00,71.1,60.4,29.61,ESE,112,0.0,1.3,69,0.00,,,0.00,Weather8,2013-05-16 16:09:00,
2013-05-16 12:14:00,71.3,60.1,29.61,ESE,112,0.7,1.3,68,0.00,,,0.00,Weather8,2013-05-16 16:14:00,
2013-05-16 12:19:00,71.3,60.6,29.61,SSE,157,0.9,1.1,69,0.00,,,0.00,Weather8,2013-05-16 16:19:00,
2013-05-16 12:24:00,71.5,60.3,29.61,SSE,157,1.1,1.3,68,0.00,,,0.00,Weather8,2013-05-16 16:24:00,
2013-05-16 12:29:00,71.6,60.1,29.61,WSW,247,1.1,1.3,67,0.00,,,0.00,Weather8,2013-05-16 16:29:00,
2013-05-16 12:34:00,72.0,58.7,29.61,West,270,0.9,1.3,63,0.00,,,0.00,Weather8,2013-05-16 16:34:00,
2013-05-16 12:39:00,72.2,59.8,29.61,SE,135,0.9,1.1,65,0.00,,,0.00,Weather8,2013-05-16 16:39:00,
2013-05-16 12:44:00,72.4,59.5,29.61,WNW,292,0.0,0.9,64,0.00,,,0.00,Weather8,2013-05-16 16:44:00,
2013-05-16 12:49:00,72.5,59.7,29.61,East,90,0.7,1.6,64,0.00,,,0.00,Weather8,2013-05-16 16:49:00,
2013-05-16 12:54:00,72.7,59.8,29.61,SSE,157,1.1,2.0,64,0.00,,,0.00,Weather8,2013-05-16 16:54:00,
2013-05-16 12:59:00,73.1,59.2,29.61,WSW,247,1.6,2.2,62,0.00,,,0.00,Weather8,2013-05-16 16:59:00,
2013-05-16 13:04:00,73.1,59.2,29.61,SSE,157,0.7,2.2,62,0.00,,,0.00,Weather8,2013-05-16 17:04:00,
2013-05-16 13:09:00,73.1,59.2,29.60,SE,135,0.4,2.0,62,0.00,,,0.00,Weather8,2013-05-16 17:09:00,
2013-05-16 13:14:00,73.3,59.4,29.60,SSE,157,0.4,2.0,62,0.00,,,0.00,Weather8,2013-05-16 17:14:00,
2013-05-16 13:19:00,73.4,59.1,29.59,ESE,112,1.1,1.6,61,0.00,,,0.00,Weather8,2013-05-16 17:19:00,
2013-05-16 13:24:00,73.8,58.1,29.58,SE,135,1.3,2.0,58,0.00,,,0.00,Weather8,2013-05-16 17:24:00,
2013-05-16 13:29:00,74.5,57.8,29.59,ESE,112,0.7,3.4,56,0.00,,,0.00,Weather8,2013-05-16 17:29:00,
2013-05-16 13:34:00,74.9,58.2,29.59,SSE,157,2.0,3.4,56,0.00,,,0.00,Weather8,2013-05-16 17:34:00,
2013-05-16 13:39:00,75.1,58.8,29.59,SSE,157,1.3,3.4,57,0.00,,,0.00,Weather8,2013-05-16 17:39:00,
2013-05-16 13:44:00,75.2,58.5,29.59,South,180,1.1,2.0,56,0.00,,,0.00,Weather8,2013-05-16 17:44:00,
2013-05-16 13:49:00,75.1,58.8,29.59,ESE,112,0.9,2.0,57,0.00,,,0.00,Weather8,2013-05-16 17:49:00,
2013-05-16 13:54:00,75.1,58.3,29.59,West,270,0.4,1.3,56,0.00,,,0.00,Weather8,2013-05-16 17:54:00,
2013-05-16 13:59:00,75.2,58.5,29.59,ESE,112,1.1,1.8,56,0.00,,,0.00,Weather8,2013-05-16 17:59:00,
2013-05-16 14:04:00,75.6,58.3,29.59,ESE,112,3.6,3.6,55,0.00,,,0.00,Weather8,2013-05-16 18:04:00,
2013-05-16 14:09:00,75.6,57.8,29.59,ESE,112,1.1,3.6,54,0.00,,,0.00,Weather8,2013-05-16 18:09:00,
2013-05-16 14:14:00,76.1,57.2,29.59,ESE,112,1.8,3.6,52,0.00,,,0.00,Weather8,2013-05-16 18:14:00,
2013-05-16 14:19:00,76.7,57.2,29.58,ESE,112,2.7,2.9,51,0.00,,,0.00,Weather8,2013-05-16 18:19:00,
2013-05-16 14:24:00,77.0,57.1,29.58,SSE,157,1.3,2.7,50,0.00,,,0.00,Weather8,2013-05-16 18:24:00,
2013-05-16 14:29:00,77.8,57.7,29.58,SSE,157,1.3,2.7,50,0.00,,,0.00,Weather8,2013-05-16 18:29:00,
2013-05-16 14:34:00,77.9,56.6,29.58,ESE,112,1.1,2.7,48,0.00,,,0.00,Weather8,2013-05-16 18:34:00,
2013-05-16 14:39:00,77.9,56.6,29.58,South,180,0.9,2.7,48,0.00,,,0.00,Weather8,2013-05-16 18:39:00,
2013-05-16 14:44:00,77.8,55.3,29.58,SE,135,1.8,3.4,46,0.00,,,0.00,Weather8,2013-05-16 18:44:00,
2013-05-16 14:49:00,77.4,54.9,29.58,SSE,157,2.2,3.4,46,0.00,,,0.00,Weather8,2013-05-16 18:49:00,
2013-05-16 14:54:00,76.9,54.5,29.58,SSW,202,1.8,3.1,46,0.00,,,0.00,Weather8,2013-05-16 18:54:00,
2013-05-16 14:59:00,76.7,54.9,29.58,SSE,157,1.1,3.1,47,0.00,,,0.00,Weather8,2013-05-16 18:59:00,
2013-05-16 15:04:00,76.7,55.5,29.58,East,90,1.1,2.2,48,0.00,,,0.00,Weather8,2013-05-16 19:04:00,
2013-05-16 15:09:00,77.2,55.4,29.57,South,180,0.9,2.2,47,0.00,,,0.00,Weather8,2013-05-16 19:09:00,
2013-05-16 15:14:00,77.6,55.7,29.57,ESE,112,2.0,2.2,47,0.00,,,0.00,Weather8,2013-05-16 19:14:00,
2013-05-16 15:19:00,77.9,55.5,29.58,ESE,112,2.7,2.7,46,0.00,,,0.00,Weather8,2013-05-16 19:19:00,
2013-05-16 15:24:00,77.8,55.3,29.58,South,180,1.8,2.7,46,0.00,,,0.00,Weather8,2013-05-16 19:24:00,
2013-05-16 15:29:00,77.6,54.5,29.58,SSW,202,2.5,3.4,45,0.00,,,0.00,Weather8,2013-05-16 19:29:00,
2013-05-16 15:34:00,77.2,54.8,29.57,ESE,112,1.1,3.4,46,0.00,,,0.00,Weather8,2013-05-16 19:34:00,
2013-05-16 15:39:00,77.2,54.2,29.58,South,180,2.5,3.4,45,0.00,,,0.00,Weather8,2013-05-16 19:39:00,
2013-05-16 15:44:00,77.2,53.6,29.57,South,180,1.6,3.4,44,0.00,,,0.00,Weather8,2013-05-16 19:44:00,
2013-05-16 15:49:00,77.0,52.2,29.57,WSW,247,2.5,3.6,42,0.00,,,0.00,Weather8,2013-05-16 19:49:00,
2013-05-16 15:54:00,77.0,53.4,29.57,SSW,202,0.7,3.6,44,0.00,,,0.00,Weather8,2013-05-16 19:54:00,
2013-05-16 15:59:00,77.0,54.0,29.56,South,180,1.6,3.6,45,0.00,,,0.00,Weather8,2013-05-16 19:59:00,
2013-05-16 16:04:00,77.4,53.7,29.56,SE,135,1.3,2.5,44,0.00,,,0.00,Weather8,2013-05-16 20:04:00,
2013-05-16 16:09:00,77.4,52.5,29.57,SSW,202,2.2,3.1,42,0.00,,,0.00,Weather8,2013-05-16 20:09:00,
2013-05-16 16:14:00,77.4,52.5,29.56,SSE,157,2.7,3.6,42,0.00,,,0.00,Weather8,2013-05-16 20:14:00,
2013-05-16 16:19:00,77.4,51.3,29.56,SSE,157,2.7,3.6,40,0.00,,,0.00,Weather8,2013-05-16 20:19:00,
2013-05-16 16:24:00,77.4,51.8,29.56,SE,135,2.0,4.0,41,0.00,,,0.00,Weather8,2013-05-16 20:24:00,
2013-05-16 16:29:00,77.8,52.2,29.56,West,270,2.5,4.0,41,0.00,,,0.00,Weather8,2013-05-16 20:29:00,
2013-05-16 16:34:00,78.1,53.1,29.56,SE,135,2.2,4.0,42,0.00,,,0.00,Weather8,2013-05-16 20:34:00,
2013-05-16 16:39:00,77.8,52.8,29.56,WSW,247,1.1,2.9,42,0.00,,,0.00,Weather8,2013-05-16 20:39:00,
2013-05-16 16:44:00,77.8,52.8,29.56,SE,135,1.1,2.9,42,0.00,,,0.00,Weather8,2013-05-16 20:44:00,
2013-05-16 16:49:00,77.6,52.7,29.56,South,180,1.1,2.7,42,0.00,,,0.00,Weather8,2013-05-16 20:49:00,
2013-05-16 16:54:00,77.4,52.5,29.56,SE,135,1.3,2.5,42,0.00,,,0.00,Weather8,2013-05-16 20:54:00,
2013-05-16 16:59:00,77.8,52.8,29.56,SSE,157,1.1,2.5,42,0.00,,,0.00,Weather8,2013-05-16 20:59:00,
2013-05-16 17:04:00,78.1,53.7,29.56,South,180,1.3,2.0,43,0.00,,,0.00,Weather8,2013-05-16 21:04:00,
2013-05-16 17:09:00,77.9,51.8,29.56,South,180,1.8,2.7,40,0.00,,,0.00,Weather8,2013-05-16 21:09:00,
2013-05-16 17:14:00,77.8,52.8,29.56,SSW,202,3.4,3.4,42,0.00,,,0.00,Weather8,2013-05-16 21:14:00,
2013-05-16 17:19:00,77.6,51.4,29.56,SE,135,3.1,3.4,40,0.00,,,0.00,Weather8,2013-05-16 21:19:00,
2013-05-16 17:24:00,77.6,52.0,29.56,South,180,1.8,3.4,41,0.00,,,0.00,Weather8,2013-05-16 21:24:00,
2013-05-16 17:29:00,77.8,52.8,29.56,ESE,112,0.7,3.1,42,0.00,,,0.00,Weather8,2013-05-16 21:29:00,
2013-05-16 17:34:00,77.9,53.0,29.56,South,180,1.1,2.2,42,0.00,,,0.00,Weather8,2013-05-16 21:34:00,
2013-05-16 17:39:00,78.1,53.7,29.56,South,180,2.7,2.7,43,0.00,,,0.00,Weather8,2013-05-16 21:39:00,
2013-05-16 17:44:00,77.9,53.0,29.56,South,180,1.3,3.6,42,0.00,,,0.00,Weather8,2013-05-16 21:44:00,
2013-05-16 17:49:00,77.6,53.3,29.56,SSE,157,0.4,3.6,43,0.00,,,0.00,Weather8,2013-05-16 21:49:00,
2013-05-16 17:54:00,77.4,53.7,29.55,South,180,1.1,2.5,44,0.00,,,0.00,Weather8,2013-05-16 21:54:00,
2013-05-16 17:59:00,77.2,54.2,29.56,South,180,1.8,2.5,45,0.00,,,0.00,Weather8,2013-05-16 21:59:00,
2013-05-16 18:04:00,76.9,54.5,29.56,SE,135,0.4,2.2,46,0.00,,,0.00,Weather8,2013-05-16 22:04:00,
2013-05-16 18:09:00,76.9,54.5,29.56,SSE,157,0.4,2.5,46,0.00,,,0.00,Weather8,2013-05-16 22:09:00,
2013-05-16 18:14:00,76.7,54.3,29.56,SSE,157,1.6,3.4,46,0.00,,,0.00,Weather8,2013-05-16 22:14:00,
2013-05-16 18:19:00,76.3,54.5,29.56,South,180,2.0,3.4,47,0.00,,,0.00,Weather8,2013-05-16 22:19:00,
2013-05-16 18:24:00,76.0,54.3,29.55,SE,135,1.1,2.0,47,0.00,,,0.00,Weather8,2013-05-16 22:24:00,
2013-05-16 18:29:00,75.8,54.7,29.56,SSE,157,0.9,2.0,48,0.00,,,0.00,Weather8,2013-05-16 22:29:00,
2013-05-16 18:34:00,75.2,54.8,29.56,SSE,157,0.4,2.2,49,0.00,,,0.00,Weather8,2013-05-16 22:34:00,
2013-05-16 18:39:00,74.7,54.9,29.56,SW,225,2.0,2.2,50,0.00,,,0.00,Weather8,2013-05-16 22:39:00,
2013-05-16 18:44:00,74.3,54.5,29.56,ESE,112,0.9,2.9,50,0.00,,,0.00,Weather8,2013-05-16 22:44:00,
2013-05-16 18:49:00,74.3,55.1,29.56,SSE,157,0.4,2.9,51,0.00,,,0.00,Weather8,2013-05-16 22:49:00,
2013-05-16 18:54:00,74.3,55.1,29.56,SSE,157,1.3,1.8,51,0.00,,,0.00,Weather8,2013-05-16 22:54:00,
2013-05-16 18:59:00,74.0,55.2,29.57,SW,225,1.1,1.8,52,0.00,,,0.00,Weather8,2013-05-16 22:59:00,
2013-05-16 19:04:00,73.8,55.0,29.57,SSE,157,2.5,2.5,52,0.00,,,0.00,Weather8,2013-05-16 23:04:00,
2013-05-16 19:09:00,73.4,55.2,29.57,SSW,202,0.0,2.5,53,0.00,,,0.00,Weather8,2013-05-16 23:09:00,
2013-05-16 19:14:00,73.4,55.2,29.57,SSE,157,2.0,2.5,53,0.00,,,0.00,Weather8,2013-05-16 23:14:00,
2013-05-16 19:19:00,72.9,55.2,29.57,South,180,2.0,3.1,54,0.00,,,0.00,Weather8,2013-05-16 23:19:00,
2013-05-16 19:24:00,72.7,55.5,29.57,South,180,0.9,3.1,55,0.00,,,0.00,Weather8,2013-05-16 23:24:00,
2013-05-16 19:29:00,72.4,55.7,29.57,South,180,0.9,2.0,56,0.00,,,0.00,Weather8,2013-05-16 23:29:00,
2013-05-16 19:34:00,72.4,55.7,29.57,South,180,0.0,1.1,56,0.00,,,0.00,Weather8,2013-05-16 23:34:00,
2013-05-16 19:39:00,72.0,55.9,29.57,SSW,202,1.3,1.3,57,0.00,,,0.00,Weather8,2013-05-16 23:39:00,
2013-05-16 19:44:00,71.8,55.7,29.58,SE,135,0.7,1.3,57,0.00,,,0.00,Weather8,2013-05-16 23:44:00,
2013-05-16 19:49:00,71.6,56.1,29.58,SSE,157,1.1,1.3,58,0.00,,,0.00,Weather8,2013-05-16 23:49:00,
2013-05-16 19:54:00,71.3,55.7,29.58,SSW,202,0.7,1.6,58,0.00,,,0.00,Weather8,2013-05-16 23:54:00,
2013-05-16 19:59:00,71.1,56.1,29.58,SSW,202,0.9,1.6,59,0.00,,,0.00,Weather8,2013-05-16 23:59:00,
2013-05-16 20:04:00,70.9,55.9,29.58,SSW,202,0.4,1.1,59,0.00,,,0.00,Weather8,2013-05-17 00:04:00,
2013-05-16 20:09:00,70.9,55.9,29.58,SSW,202,0.4,1.1,59,0.00,,,0.00,Weather8,2013-05-17 00:09:00,
2013-05-16 20:14:00,70.7,55.7,29.58,SSE,157,0.7,1.1,59,0.00,,,0.00,Weather8,2013-05-17 00:14:00,
2013-05-16 20:19:00,70.6,56.1,29.58,SSE,157,0.7,1.1,60,0.00,,,0.00,Weather8,2013-05-17 00:19:00,
2013-05-16 20:24:00,70.4,55.9,29.58,SSE,157,0.0,0.7,60,0.00,,,0.00,Weather8,2013-05-17 00:24:00,
2013-05-16 20:29:00,70.2,55.8,29.58,SSE,157,0.0,0.7,60,0.00,,,0.00,Weather8,2013-05-17 00:29:00,
2013-05-16 20:34:00,70.2,55.8,29.58,SSE,157,0.0,0.4,60,0.00,,,0.00,Weather8,2013-05-17 00:34:00,
2013-05-16 20:39:00,70.2,56.2,29.58,SSE,157,0.0,0.0,61,0.00,,,0.00,Weather8,2013-05-17 00:39:00,
2013-05-16 20:44:00,70.2,56.2,29.59,SSE,157,0.0,0.0,61,0.00,,,0.00,Weather8,2013-05-17 00:44:00,
2013-05-16 20:49:00,70.0,56.4,29.59,SSE,157,0.0,0.0,62,0.00,,,0.00,Weather8,2013-05-17 00:49:00,
2013-05-16 20:54:00,69.8,56.3,29.59,SSE,157,0.0,0.0,62,0.00,,,0.00,Weather8,2013-05-17 00:54:00,
2013-05-16 20:59:00,69.7,56.1,29.60,SSE,157,0.0,0.0,62,0.00,,,0.00,Weather8,2013-05-17 00:59:00,
2013-05-16 21:04:00,69.5,56.4,29.60,SSE,157,0.0,0.0,63,0.00,,,0.00,Weather8,2013-05-17 01:04:00,
2013-05-16 21:09:00,69.5,56.4,29.60,SSE,157,0.0,0.0,63,0.00,,,0.00,Weather8,2013-05-17 01:09:00,
2013-05-16 21:14:00,69.3,56.6,29.60,SSE,157,0.0,0.0,64,0.00,,,0.00,Weather8,2013-05-17 01:14:00,
2013-05-16 21:19:00,69.1,56.4,29.60,West,270,0.0,0.0,64,0.00,,,0.00,Weather8,2013-05-17 01:19:00,
2013-05-16 21:24:00,68.9,56.7,29.60,West,270,0.7,1.8,65,0.00,,,0.00,Weather8,2013-05-17 01:24:00,
2013-05-16 21:29:00,68.8,56.5,29.61,WSW,247,0.4,1.8,65,0.00,,,0.00,Weather8,2013-05-17 01:29:00,
2013-05-16 21:34:00,68.8,56.9,29.61,SSW,202,1.1,1.8,66,0.00,,,0.00,Weather8,2013-05-17 01:34:00,
2013-05-16 21:39:00,68.6,57.2,29.61,WSW,247,0.4,1.8,67,0.00,,,0.00,Weather8,2013-05-17 01:39:00,
2013-05-16 21:44:00,68.4,57.4,29.61,SSW,202,1.1,1.8,68,0.00,,,0.00,Weather8,2013-05-17 01:44:00,
2013-05-16 21:49:00,68.2,57.2,29.61,SW,225,0.9,1.8,68,0.00,,,0.00,Weather8,2013-05-17 01:49:00,
2013-05-16 21:54:00,68.2,57.7,29.61,South,180,1.1,1.8,69,0.00,,,0.00,Weather8,2013-05-17 01:54:00,
2013-05-16 21:59:00,68.0,57.5,29.61,SSW,202,1.1,1.8,69,0.00,,,0.00,Weather8,2013-05-17 01:59:00,
2013-05-16 22:04:00,68.0,58.0,29.61,WSW,247,1.8,1.8,70,0.00,,,0.00,Weather8,2013-05-17 02:04:00,
2013-05-16 22:09:00,68.0,58.0,29.61,SW,225,0.0,1.8,70,0.00,,,0.00,Weather8,2013-05-17 02:09:00,
2013-05-16 22:14:00,68.0,58.0,29.61,SW,225,0.0,1.8,70,0.00,,,0.00,Weather8,2013-05-17 02:14:00,
2013-05-16 22:19:00,68.0,58.0,29.61,WSW,247,0.7,1.1,70,0.00,,,0.00,Weather8,2013-05-17 02:19:00,
2013-05-16 22:24:00,68.0,58.3,29.61,SW,225,0.0,1.1,71,0.00,,,0.00,Weather8,2013-05-17 02:24:00,
2013-05-16 22:29:00,68.0,58.3,29.61,SSW,202,1.8,1.8,71,0.00,,,0.00,Weather8,2013-05-17 02:29:00,
2013-05-16 22:34:00,68.0,58.3,29.61,SW,225,1.1,1.8,71,0.00,,,0.00,Weather8,2013-05-17 02:34:00,
2013-05-16 22:39:00,67.9,58.5,29.61,SW,225,1.1,1.8,72,0.00,,,0.00,Weather8,2013-05-17 02:39:00,
2013-05-16 22:44:00,67.9,58.5,29.61,WNW,292,0.7,1.8,72,0.00,,,0.00,Weather8,2013-05-17 02:44:00,
2013-05-16 22:49:00,67.7,58.3,29.61,SSW,202,0.7,1.8,72,0.00,,,0.00,Weather8,2013-05-17 02:49:00,
2013-05-16 22:54:00,67.7,58.3,29.61,SW,225,0.4,1.1,72,0.00,,,0.00,Weather8,2013-05-17 02:54:00,
2013-05-16 22:59:00,67.7,58.8,29.61,WSW,247,0.2,1.1,73,0.00,,,0.00,Weather8,2013-05-17 02:59:00,
2013-05-16 23:04:00,67.7,58.8,29.61,WSW,247,1.1,1.1,73,0.00,,,0.00,Weather8,2013-05-17 03:04:00,
2013-05-16 23:09:00,67.5,59.0,29.61,SW,225,2.0,2.0,74,0.00,,,0.00,Weather8,2013-05-17 03:09:00,
2013-05-16 23:14:00,67.5,59.0,29.61,WSW,247,0.2,2.0,74,0.00,,,0.00,Weather8,2013-05-17 03:14:00,
2013-05-16 23:19:00,67.3,58.8,29.61,WSW,247,0.4,2.0,74,0.00,,,0.00,Weather8,2013-05-17 03:19:00,
2013-05-16 23:24:00,67.3,58.8,29.61,West,270,0.4,1.1,74,0.00,,,0.00,Weather8,2013-05-17 03:24:00,
2013-05-16 23:29:00,67.3,58.8,29.61,WSW,247,0.4,1.1,74,0.00,,,0.00,Weather8,2013-05-17 03:29:00,
2013-05-16 23:34:00,67.3,58.8,29.62,SW,225,0.4,0.9,74,0.00,,,0.00,Weather8,2013-05-17 03:34:00,
2013-05-16 23:39:00,67.3,58.8,29.62,North,0,0.9,0.9,74,0.00,,,0.00,Weather8,2013-05-17 03:39:00,
2013-05-16 23:44:00,67.3,58.8,29.63,North,0,1.8,1.8,74,0.00,,,0.00,Weather8,2013-05-17 03:44:00,
2013-05-16 23:49:00,67.1,59.0,29.63,North,0,1.8,1.8,75,0.00,,,0.00,Weather8,2013-05-17 03:49:00,
2013-05-16 23:54:00,67.1,59.3,29.63,North,0,0.9,1.8,76,0.00,,,0.00,Weather8,2013-05-17 03:54:00,
2013-05-16 23:59:00,67.1,59.3,29.64,North,0,1.1,1.8,76,0.00,,,0.00,Weather8,2013-05-17 03:59:00,